date,time,water_lv
2024-02-01,00:00:00,0.73
2024-02-01,00:10:00,0.74
2024-02-01,00:20:00,0.76
2024-02-01,00:30:00,0.77
2024-02-01,00:40:00,0.78
2024-02-01,00:50:00,0.78
2024-02-01,01:00:00,0.79
2024-02-01,01:10:00,0.78
2024-02-01,01:20:00,0.78
2024-02-01,01:30:00,0.78
2024-02-01,01:40:00,0.78
2024-02-01,01:50:00,0.77
2024-02-01,02:00:00,0.76
2024-02-01,02:10:00,0.75
2024-02-01,02:20:00,0.74
2024-02-01,02:30:00,0.73
2024-02-01,02:40:00,0.71
2024-02-01,02:50:00,0.69
2024-02-01,03:00:00,0.67
2024-02-01,03:10:00,0.65
2024-02-01,03:20:00,0.64
2024-02-01,03:30:00,0.62
2024-02-01,03:40:00,0.61
2024-02-01,03:50:00,0.59
2024-02-01,04:00:00,0.58
2024-02-01,04:10:00,0.56
2024-02-01,04:20:00,0.55
2024-02-01,04:30:00,0.53
2024-02-01,04:40:00,0.52
2024-02-01,04:50:00,0.5
2024-02-01,05:00:00,0.49
2024-02-01,05:10:00,0.47
2024-02-01,05:20:00,0.44
2024-02-01,05:30:00,0.44
2024-02-01,05:40:00,0.43
2024-02-01,05:50:00,0.41
2024-02-01,06:00:00,0.4
2024-02-01,06:10:00,0.38
2024-02-01,06:20:00,0.37
2024-02-01,06:30:00,0.35
2024-02-01,06:40:00,0.34
2024-02-01,06:50:00,0.33
2024-02-01,07:00:00,0.31
2024-02-01,07:10:00,0.3
2024-02-01,07:20:00,0.28
2024-02-01,07:30:00,0.26
2024-02-01,07:40:00,0.25
2024-02-01,07:50:00,0.24
2024-02-01,08:00:00,0.23
2024-02-01,08:10:00,0.21
2024-02-01,08:20:00,0.2
2024-02-01,08:30:00,0.19
2024-02-01,08:40:00,0.18
2024-02-01,08:50:00,0.18
2024-02-01,09:00:00,0.17
2024-02-01,09:10:00,0.19
2024-02-01,09:20:00,0.21
2024-02-01,09:30:00,0.25
2024-02-01,09:40:00,0.29
2024-02-01,09:50:00,0.35
2024-02-01,10:00:00,0.39
2024-02-01,10:10:00,0.44
2024-02-01,10:20:00,0.48
2024-02-01,10:30:00,0.5
2024-02-01,10:40:00,0.53
2024-02-01,10:50:00,0.55
2024-02-01,11:00:00,0.56
2024-02-01,11:10:00,0.57
2024-02-01,11:20:00,0.6
2024-02-01,11:30:00,0.62
2024-02-01,11:40:00,0.64
2024-02-01,11:50:00,0.65
2024-02-01,12:00:00,0.68
2024-02-01,12:10:00,0.7
2024-02-01,12:20:00,0.71
2024-02-01,12:30:00,0.73
2024-02-01,12:40:00,0.75
2024-02-01,12:50:00,0.76
2024-02-01,13:00:00,0.79
2024-02-01,13:10:00,0.81
2024-02-01,13:20:00,0.82
2024-02-01,13:30:00,0.84
2024-02-01,13:40:00,0.85
2024-02-01,13:50:00,0.86
2024-02-01,14:00:00,0.88
2024-02-01,14:10:00,0.89
2024-02-01,14:20:00,0.9
2024-02-01,14:30:00,0.91
2024-02-01,14:40:00,0.92
2024-02-01,14:50:00,0.93
2024-02-01,15:00:00,0.93
2024-02-01,15:10:00,0.92
2024-02-01,15:20:00,0.93
2024-02-01,15:30:00,0.94
2024-02-01,15:40:00,0.93
2024-02-01,15:50:00,0.93
2024-02-01,16:00:00,0.92
2024-02-01,16:10:00,0.89
2024-02-01,16:20:00,0.89
2024-02-01,16:30:00,0.87
2024-02-01,16:40:00,0.85
2024-02-01,16:50:00,0.82
2024-02-01,17:00:00,0.8
2024-02-01,17:10:00,0.79
2024-02-01,17:20:00,0.77
2024-02-01,17:30:00,0.74
2024-02-01,17:40:00,0.73
2024-02-01,17:50:00,0.72
2024-02-01,18:00:00,0.7
2024-02-01,18:10:00,0.68
2024-02-01,18:20:00,0.68
2024-02-01,18:30:00,0.67
2024-02-01,18:40:00,0.66
2024-02-01,18:50:00,0.64
2024-02-01,19:00:00,0.63
2024-02-01,19:10:00,0.61
2024-02-01,19:20:00,0.59
2024-02-01,19:30:00,0.58
2024-02-01,19:40:00,0.56
2024-02-01,19:50:00,0.56
2024-02-01,20:00:00,0.54
2024-02-01,20:10:00,0.53
2024-02-01,20:20:00,0.51
2024-02-01,20:30:00,0.51
2024-02-01,20:40:00,0.5
2024-02-01,20:50:00,0.48
2024-02-01,21:00:00,0.47
2024-02-01,21:10:00,0.46
2024-02-01,21:20:00,0.46
2024-02-01,21:30:00,0.45
2024-02-01,21:40:00,0.44
2024-02-01,21:50:00,0.43
2024-02-01,22:00:00,0.43
2024-02-01,22:10:00,0.43
2024-02-01,22:20:00,0.44
2024-02-01,22:30:00,0.45
2024-02-01,22:40:00,0.46
2024-02-01,22:50:00,0.47
2024-02-01,23:00:00,0.48
2024-02-01,23:10:00,0.51
2024-02-01,23:20:00,0.53
2024-02-01,23:30:00,0.56
2024-02-01,23:40:00,0.57
2024-02-01,23:50:00,0.59
2024-02-02,00:00:00,0.61
2024-02-02,00:10:00,0.63
2024-02-02,00:20:00,0.64
2024-02-02,00:30:00,0.65
2024-02-02,00:40:00,0.67
2024-02-02,00:50:00,0.68
2024-02-02,01:00:00,0.69
2024-02-02,01:10:00,0.7
2024-02-02,01:20:00,0.71
2024-02-02,01:30:00,0.72
2024-02-02,01:40:00,0.71
2024-02-02,01:50:00,0.72
2024-02-02,02:00:00,0.71
2024-02-02,02:10:00,0.72
2024-02-02,02:20:00,0.71
2024-02-02,02:30:00,0.71
2024-02-02,02:40:00,0.7
2024-02-02,02:50:00,0.69
2024-02-02,03:00:00,0.68
2024-02-02,03:10:00,0.66
2024-02-02,03:20:00,0.64
2024-02-02,03:30:00,0.63
2024-02-02,03:40:00,0.61
2024-02-02,03:50:00,0.58
2024-02-02,04:00:00,0.58
2024-02-02,04:10:00,0.56
2024-02-02,04:20:00,0.53
2024-02-02,04:30:00,0.53
2024-02-02,04:40:00,0.52
2024-02-02,04:50:00,0.51
2024-02-02,05:00:00,0.48
2024-02-02,05:10:00,0.48
2024-02-02,05:20:00,0.46
2024-02-02,05:30:00,0.45
2024-02-02,05:40:00,0.44
2024-02-02,05:50:00,0.42
2024-02-02,06:00:00,0.4
2024-02-02,06:10:00,0.39
2024-02-02,06:20:00,0.37
2024-02-02,06:30:00,0.37
2024-02-02,06:40:00,0.36
2024-02-02,06:50:00,0.33
2024-02-02,07:00:00,0.32
2024-02-02,07:10:00,0.31
2024-02-02,07:20:00,0.29
2024-02-02,07:30:00,0.27
2024-02-02,07:40:00,0.26
2024-02-02,07:50:00,0.25
2024-02-02,08:00:00,0.24
2024-02-02,08:10:00,0.23
2024-02-02,08:20:00,0.22
2024-02-02,08:30:00,0.21
2024-02-02,08:40:00,0.2
2024-02-02,08:50:00,0.2
2024-02-02,09:00:00,0.18
2024-02-02,09:10:00,0.19
2024-02-02,09:20:00,0.2
2024-02-02,09:30:00,0.23
2024-02-02,09:40:00,0.27
2024-02-02,09:50:00,0.3
2024-02-02,10:00:00,0.34
2024-02-02,10:10:00,0.38
2024-02-02,10:20:00,-
2024-02-02,10:30:00,0.45
2024-02-02,10:40:00,0.49
2024-02-02,10:50:00,0.52
2024-02-02,11:00:00,0.54
2024-02-02,11:10:00,0.55
2024-02-02,11:20:00,0.57
2024-02-02,11:30:00,0.59
2024-02-02,11:40:00,0.6
2024-02-02,11:50:00,0.62
2024-02-02,12:00:00,0.64
2024-02-02,12:10:00,0.66
2024-02-02,12:20:00,0.68
2024-02-02,12:30:00,0.7
2024-02-02,12:40:00,0.72
2024-02-02,12:50:00,0.73
2024-02-02,13:00:00,0.74
2024-02-02,13:10:00,0.76
2024-02-02,13:20:00,0.78
2024-02-02,13:30:00,0.8
2024-02-02,13:40:00,0.81
2024-02-02,13:50:00,0.83
2024-02-02,14:00:00,0.84
2024-02-02,14:10:00,0.85
2024-02-02,14:20:00,0.86
2024-02-02,14:30:00,0.87
2024-02-02,14:40:00,0.87
2024-02-02,14:50:00,0.88
2024-02-02,15:00:00,0.89
2024-02-02,15:10:00,0.89
2024-02-02,15:20:00,0.89
2024-02-02,15:30:00,0.89
2024-02-02,15:40:00,0.89
2024-02-02,15:50:00,0.89
2024-02-02,16:00:00,0.87
2024-02-02,16:10:00,0.85
2024-02-02,16:20:00,0.84
2024-02-02,16:30:00,0.82
2024-02-02,16:40:00,0.8
2024-02-02,16:50:00,0.77
2024-02-02,17:00:00,0.76
2024-02-02,17:10:00,0.74
2024-02-02,17:20:00,0.72
2024-02-02,17:30:00,0.7
2024-02-02,17:40:00,0.68
2024-02-02,17:50:00,0.66
2024-02-02,18:00:00,0.65
2024-02-02,18:10:00,0.63
2024-02-02,18:20:00,0.62
2024-02-02,18:30:00,0.61
2024-02-02,18:40:00,0.59
2024-02-02,18:50:00,0.58
2024-02-02,19:00:00,0.56
2024-02-02,19:10:00,0.55
2024-02-02,19:20:00,0.53
2024-02-02,19:30:00,0.52
2024-02-02,19:40:00,0.51
2024-02-02,19:50:00,0.49
2024-02-02,20:00:00,0.48
2024-02-02,20:10:00,0.46
2024-02-02,20:20:00,0.44
2024-02-02,20:30:00,0.43
2024-02-02,20:40:00,0.42
2024-02-02,20:50:00,0.4
2024-02-02,21:00:00,0.39
2024-02-02,21:10:00,0.37
2024-02-02,21:20:00,0.36
2024-02-02,21:30:00,0.35
2024-02-02,21:40:00,0.34
2024-02-02,21:50:00,0.33
2024-02-02,22:00:00,0.32
2024-02-02,22:10:00,0.31
2024-02-02,22:20:00,0.3
2024-02-02,22:30:00,0.3
2024-02-02,22:40:00,0.29
2024-02-02,22:50:00,0.3
2024-02-02,23:00:00,0.3
2024-02-02,23:10:00,0.31
2024-02-02,23:20:00,0.33
2024-02-02,23:30:00,0.34
2024-02-02,23:40:00,0.38
2024-02-02,23:50:00,0.41
2024-02-03,00:00:00,0.44
2024-02-03,00:10:00,0.42
2024-02-03,00:20:00,0.48
2024-02-03,00:30:00,0.5
2024-02-03,00:40:00,0.51
2024-02-03,00:50:00,0.52
2024-02-03,01:00:00,0.53
2024-02-03,01:10:00,0.55
2024-02-03,01:20:00,0.56
2024-02-03,01:30:00,0.57
2024-02-03,01:40:00,0.58
2024-02-03,01:50:00,0.6
2024-02-03,02:00:00,0.61
2024-02-03,02:10:00,0.62
2024-02-03,02:20:00,0.63
2024-02-03,02:30:00,0.63
2024-02-03,02:40:00,0.64
2024-02-03,02:50:00,0.64
2024-02-03,03:00:00,0.64
2024-02-03,03:10:00,0.64
2024-02-03,03:20:00,0.65
2024-02-03,03:30:00,0.65
2024-02-03,03:40:00,0.64
2024-02-03,03:50:00,0.63
2024-02-03,04:00:00,0.63
2024-02-03,04:10:00,0.62
2024-02-03,04:20:00,0.58
2024-02-03,04:30:00,0.58
2024-02-03,04:40:00,0.56
2024-02-03,04:50:00,0.56
2024-02-03,05:00:00,0.55
2024-02-03,05:10:00,0.53
2024-02-03,05:20:00,0.51
2024-02-03,05:30:00,0.51
2024-02-03,05:40:00,0.5
2024-02-03,05:50:00,0.49
2024-02-03,06:00:00,0.48
2024-02-03,06:10:00,0.46
2024-02-03,06:20:00,0.46
2024-02-03,06:30:00,0.45
2024-02-03,06:40:00,0.44
2024-02-03,06:50:00,0.41
2024-02-03,07:00:00,0.41
2024-02-03,07:10:00,0.39
2024-02-03,07:20:00,0.4
2024-02-03,07:30:00,0.38
2024-02-03,07:40:00,0.36
2024-02-03,07:50:00,0.36
2024-02-03,08:00:00,0.34
2024-02-03,08:10:00,0.34
2024-02-03,08:20:00,0.34
2024-02-03,08:30:00,0.32
2024-02-03,08:40:00,0.33
2024-02-03,08:50:00,0.32
2024-02-03,09:00:00,0.32
2024-02-03,09:10:00,0.31
2024-02-03,09:20:00,0.32
2024-02-03,09:30:00,0.34
2024-02-03,09:40:00,0.34
2024-02-03,09:50:00,-
2024-02-03,10:00:00,0.4
2024-02-03,10:10:00,0.43
2024-02-03,10:20:00,0.46
2024-02-03,10:30:00,0.49
2024-02-03,10:40:00,0.52
2024-02-03,10:50:00,0.55
2024-02-03,11:00:00,0.57
2024-02-03,11:10:00,0.59
2024-02-03,11:20:00,0.61
2024-02-03,11:30:00,0.63
2024-02-03,11:40:00,0.65
2024-02-03,11:50:00,0.67
2024-02-03,12:00:00,0.69
2024-02-03,12:10:00,0.7
2024-02-03,12:20:00,0.72
2024-02-03,12:30:00,0.74
2024-02-03,12:40:00,-
2024-02-03,12:50:00,-
2024-02-03,13:00:00,0.78
2024-02-03,13:10:00,0.81
2024-02-03,13:20:00,0.82
2024-02-03,13:30:00,-
2024-02-03,13:40:00,-
2024-02-03,13:50:00,0.87
2024-02-03,14:00:00,0.88
2024-02-03,14:10:00,0.88
2024-02-03,14:20:00,0.91
2024-02-03,14:30:00,0.91
2024-02-03,14:40:00,0.92
2024-02-03,14:50:00,0.94
2024-02-03,15:00:00,0.94
2024-02-03,15:10:00,0.95
2024-02-03,15:20:00,0.95
2024-02-03,15:30:00,0.95
2024-02-03,15:40:00,0.95
2024-02-03,15:50:00,0.94
2024-02-03,16:00:00,0.93
2024-02-03,16:10:00,0.92
2024-02-03,16:20:00,0.91
2024-02-03,16:30:00,0.89
2024-02-03,16:40:00,0.87
2024-02-03,16:50:00,0.85
2024-02-03,17:00:00,0.83
2024-02-03,17:10:00,0.81
2024-02-03,17:20:00,0.8
2024-02-03,17:30:00,0.78
2024-02-03,17:40:00,0.75
2024-02-03,17:50:00,0.75
2024-02-03,18:00:00,0.72
2024-02-03,18:10:00,0.7
2024-02-03,18:20:00,0.69
2024-02-03,18:30:00,0.68
2024-02-03,18:40:00,0.66
2024-02-03,18:50:00,0.65
2024-02-03,19:00:00,0.63
2024-02-03,19:10:00,0.62
2024-02-03,19:20:00,0.61
2024-02-03,19:30:00,0.59
2024-02-03,19:40:00,0.57
2024-02-03,19:50:00,0.56
2024-02-03,20:00:00,0.55
2024-02-03,20:10:00,0.53
2024-02-03,20:20:00,0.51
2024-02-03,20:30:00,0.5
2024-02-03,20:40:00,0.48
2024-02-03,20:50:00,0.47
2024-02-03,21:00:00,0.45
2024-02-03,21:10:00,0.44
2024-02-03,21:20:00,0.42
2024-02-03,21:30:00,0.41
2024-02-03,21:40:00,0.39
2024-02-03,21:50:00,0.38
2024-02-03,22:00:00,0.37
2024-02-03,22:10:00,0.36
2024-02-03,22:20:00,0.34
2024-02-03,22:30:00,0.33
2024-02-03,22:40:00,0.31
2024-02-03,22:50:00,0.31
2024-02-03,23:00:00,0.29
2024-02-03,23:10:00,0.29
2024-02-03,23:20:00,0.27
2024-02-03,23:30:00,0.27
2024-02-03,23:40:00,0.27
2024-02-03,23:50:00,0.27
2024-02-04,00:00:00,0.27
2024-02-04,00:10:00,0.26
2024-02-04,00:20:00,0.27
2024-02-04,00:30:00,0.29
2024-02-04,00:40:00,0.3
2024-02-04,00:50:00,0.3
2024-02-04,01:00:00,0.33
2024-02-04,01:10:00,0.35
2024-02-04,01:20:00,0.37
2024-02-04,01:30:00,0.38
2024-02-04,01:40:00,0.4
2024-02-04,01:50:00,0.42
2024-02-04,02:00:00,0.43
2024-02-04,02:10:00,0.44
2024-02-04,02:20:00,0.45
2024-02-04,02:30:00,0.47
2024-02-04,02:40:00,0.48
2024-02-04,02:50:00,0.49
2024-02-04,03:00:00,0.5
2024-02-04,03:10:00,0.5
2024-02-04,03:20:00,0.51
2024-02-04,03:30:00,0.52
2024-02-04,03:40:00,0.53
2024-02-04,03:50:00,0.54
2024-02-04,04:00:00,0.54
2024-02-04,04:10:00,0.55
2024-02-04,04:20:00,0.55
2024-02-04,04:30:00,0.56
2024-02-04,04:40:00,0.56
2024-02-04,04:50:00,0.57
2024-02-04,05:00:00,0.56
2024-02-04,05:10:00,0.56
2024-02-04,05:20:00,0.56
2024-02-04,05:30:00,0.55
2024-02-04,05:40:00,0.54
2024-02-04,05:50:00,0.55
2024-02-04,06:00:00,0.55
2024-02-04,06:10:00,0.55
2024-02-04,06:20:00,0.55
2024-02-04,06:30:00,0.55
2024-02-04,06:40:00,0.55
2024-02-04,06:50:00,0.54
2024-02-04,07:00:00,0.56
2024-02-04,07:10:00,0.56
2024-02-04,07:20:00,0.55
2024-02-04,07:30:00,0.55
2024-02-04,07:40:00,0.55
2024-02-04,07:50:00,0.55
2024-02-04,08:00:00,0.56
2024-02-04,08:10:00,0.56
2024-02-04,08:20:00,0.58
2024-02-04,08:30:00,0.58
2024-02-04,08:40:00,0.6
2024-02-04,08:50:00,0.6
2024-02-04,09:00:00,0.61
2024-02-04,09:10:00,0.61
2024-02-04,09:20:00,0.63
2024-02-04,09:30:00,0.64
2024-02-04,09:40:00,0.67
2024-02-04,09:50:00,0.68
2024-02-04,10:00:00,0.69
2024-02-04,10:10:00,0.72
2024-02-04,10:20:00,0.72
2024-02-04,10:30:00,0.73
2024-02-04,10:40:00,0.76
2024-02-04,10:50:00,0.77
2024-02-04,11:00:00,0.78
2024-02-04,11:10:00,0.81
2024-02-04,11:20:00,0.82
2024-02-04,11:30:00,0.83
2024-02-04,11:40:00,0.85
2024-02-04,11:50:00,0.86
2024-02-04,12:00:00,0.88
2024-02-04,12:10:00,0.87
2024-02-04,12:20:00,0.9
2024-02-04,12:30:00,0.92
2024-02-04,12:40:00,0.93
2024-02-04,12:50:00,0.95
2024-02-04,13:00:00,0.96
2024-02-04,13:10:00,0.97
2024-02-04,13:20:00,0.99
2024-02-04,13:30:00,0.99
2024-02-04,13:40:00,0.99
2024-02-04,13:50:00,1
2024-02-04,14:00:00,1.02
2024-02-04,14:10:00,1.02
2024-02-04,14:20:00,1.03
2024-02-04,14:30:00,1.03
2024-02-04,14:40:00,1.04
2024-02-04,14:50:00,1.04
2024-02-04,15:00:00,1.03
2024-02-04,15:10:00,1.02
2024-02-04,15:20:00,1.01
2024-02-04,15:30:00,1.01
2024-02-04,15:40:00,0.99
2024-02-04,15:50:00,0.96
2024-02-04,16:00:00,0.96
2024-02-04,16:10:00,0.95
2024-02-04,16:20:00,0.92
2024-02-04,16:30:00,0.9
2024-02-04,16:40:00,0.89
2024-02-04,16:50:00,0.87
2024-02-04,17:00:00,0.85
2024-02-04,17:10:00,0.83
2024-02-04,17:20:00,0.81
2024-02-04,17:30:00,0.8
2024-02-04,17:40:00,0.79
2024-02-04,17:50:00,0.76
2024-02-04,18:00:00,0.75
2024-02-04,18:10:00,0.73
2024-02-04,18:20:00,0.71
2024-02-04,18:30:00,0.71
2024-02-04,18:40:00,0.69
2024-02-04,18:50:00,0.68
2024-02-04,19:00:00,0.66
2024-02-04,19:10:00,0.65
2024-02-04,19:20:00,0.63
2024-02-04,19:30:00,0.62
2024-02-04,19:40:00,0.6
2024-02-04,19:50:00,0.58
2024-02-04,20:00:00,0.57
2024-02-04,20:10:00,0.55
2024-02-04,20:20:00,0.53
2024-02-04,20:30:00,0.52
2024-02-04,20:40:00,0.5
2024-02-04,20:50:00,0.49
2024-02-04,21:00:00,0.47
2024-02-04,21:10:00,0.46
2024-02-04,21:20:00,0.44
2024-02-04,21:30:00,0.42
2024-02-04,21:40:00,0.41
2024-02-04,21:50:00,0.39
2024-02-04,22:00:00,0.38
2024-02-04,22:10:00,0.36
2024-02-04,22:20:00,0.35
2024-02-04,22:30:00,0.32
2024-02-04,22:40:00,0.32
2024-02-04,22:50:00,0.3
2024-02-04,23:00:00,0.29
2024-02-04,23:10:00,0.27
2024-02-04,23:20:00,0.26
2024-02-04,23:30:00,0.24
2024-02-04,23:40:00,0.23
2024-02-04,23:50:00,0.22
2024-02-05,00:00:00,0.21
2024-02-05,00:10:00,0.2
2024-02-05,00:20:00,0.2
2024-02-05,00:30:00,0.19
2024-02-05,00:40:00,0.18
2024-02-05,00:50:00,0.18
2024-02-05,01:00:00,0.18
2024-02-05,01:10:00,0.18
2024-02-05,01:20:00,0.18
2024-02-05,01:30:00,0.18
2024-02-05,01:40:00,0.19
2024-02-05,01:50:00,0.2
2024-02-05,02:00:00,0.22
2024-02-05,02:10:00,0.23
2024-02-05,02:20:00,0.25
2024-02-05,02:30:00,0.27
2024-02-05,02:40:00,0.29
2024-02-05,02:50:00,0.31
2024-02-05,03:00:00,0.33
2024-02-05,03:10:00,0.35
2024-02-05,03:20:00,0.36
2024-02-05,03:30:00,0.37
2024-02-05,03:40:00,0.39
2024-02-05,03:50:00,0.4
2024-02-05,04:00:00,0.41
2024-02-05,04:10:00,0.42
2024-02-05,04:20:00,0.44
2024-02-05,04:30:00,0.45
2024-02-05,04:40:00,0.46
2024-02-05,04:50:00,0.48
2024-02-05,05:00:00,0.49
2024-02-05,05:10:00,0.51
2024-02-05,05:20:00,0.52
2024-02-05,05:30:00,0.53
2024-02-05,05:40:00,0.54
2024-02-05,05:50:00,0.56
2024-02-05,06:00:00,0.57
2024-02-05,06:10:00,0.58
2024-02-05,06:20:00,0.59
2024-02-05,06:30:00,0.6
2024-02-05,06:40:00,0.6
2024-02-05,06:50:00,0.61
2024-02-05,07:00:00,0.62
2024-02-05,07:10:00,0.64
2024-02-05,07:20:00,-
2024-02-05,07:30:00,-
2024-02-05,07:40:00,0.65
2024-02-05,07:50:00,0.66
2024-02-05,08:00:00,0.66
2024-02-05,08:10:00,0.67
2024-02-05,08:20:00,0.69
2024-02-05,08:30:00,0.69
2024-02-05,08:40:00,0.7
2024-02-05,08:50:00,0.71
2024-02-05,09:00:00,0.72
2024-02-05,09:10:00,0.72
2024-02-05,09:20:00,0.73
2024-02-05,09:30:00,0.74
2024-02-05,09:40:00,0.74
2024-02-05,09:50:00,0.74
2024-02-05,10:00:00,0.76
2024-02-05,10:10:00,0.77
2024-02-05,10:20:00,0.78
2024-02-05,10:30:00,0.79
2024-02-05,10:40:00,0.8
2024-02-05,10:50:00,0.82
2024-02-05,11:00:00,0.82
2024-02-05,11:10:00,0.82
2024-02-05,11:20:00,0.85
2024-02-05,11:30:00,0.86
2024-02-05,11:40:00,0.85
2024-02-05,11:50:00,0.87
2024-02-05,12:00:00,0.88
2024-02-05,12:10:00,0.89
2024-02-05,12:20:00,0.9
2024-02-05,12:30:00,0.9
2024-02-05,12:40:00,0.9
2024-02-05,12:50:00,0.92
2024-02-05,13:00:00,0.92
2024-02-05,13:10:00,0.93
2024-02-05,13:20:00,0.94
2024-02-05,13:30:00,0.94
2024-02-05,13:40:00,0.94
2024-02-05,13:50:00,0.94
2024-02-05,14:00:00,0.95
2024-02-05,14:10:00,0.95
2024-02-05,14:20:00,0.94
2024-02-05,14:30:00,0.95
2024-02-05,14:40:00,0.94
2024-02-05,14:50:00,0.93
2024-02-05,15:00:00,0.93
2024-02-05,15:10:00,0.92
2024-02-05,15:20:00,0.91
2024-02-05,15:30:00,0.9
2024-02-05,15:40:00,0.89
2024-02-05,15:50:00,0.88
2024-02-05,16:00:00,0.86
2024-02-05,16:10:00,0.85
2024-02-05,16:20:00,0.84
2024-02-05,16:30:00,0.82
2024-02-05,16:40:00,0.81
2024-02-05,16:50:00,0.79
2024-02-05,17:00:00,0.78
2024-02-05,17:10:00,0.77
2024-02-05,17:20:00,0.75
2024-02-05,17:30:00,0.74
2024-02-05,17:40:00,0.72
2024-02-05,17:50:00,0.7
2024-02-05,18:00:00,0.69
2024-02-05,18:10:00,0.68
2024-02-05,18:20:00,0.66
2024-02-05,18:30:00,0.65
2024-02-05,18:40:00,0.64
2024-02-05,18:50:00,0.62
2024-02-05,19:00:00,0.59
2024-02-05,19:10:00,0.59
2024-02-05,19:20:00,0.58
2024-02-05,19:30:00,0.56
2024-02-05,19:40:00,0.55
2024-02-05,19:50:00,0.54
2024-02-05,20:00:00,0.51
2024-02-05,20:10:00,0.5
2024-02-05,20:20:00,0.49
2024-02-05,20:30:00,0.45
2024-02-05,20:40:00,0.46
2024-02-05,20:50:00,0.45
2024-02-05,21:00:00,0.42
2024-02-05,21:10:00,0.41
2024-02-05,21:20:00,0.4
2024-02-05,21:30:00,0.38
2024-02-05,21:40:00,0.37
2024-02-05,21:50:00,0.35
2024-02-05,22:00:00,0.33
2024-02-05,22:10:00,0.32
2024-02-05,22:20:00,0.3
2024-02-05,22:30:00,0.29
2024-02-05,22:40:00,0.27
2024-02-05,22:50:00,0.26
2024-02-05,23:00:00,0.24
2024-02-05,23:10:00,0.23
2024-02-05,23:20:00,0.21
2024-02-05,23:30:00,0.2
2024-02-05,23:40:00,0.18
2024-02-05,23:50:00,0.17
2024-02-06,00:00:00,0.16
2024-02-06,00:10:00,0.14
2024-02-06,00:20:00,0.13
2024-02-06,00:30:00,0.11
2024-02-06,00:40:00,0.1
2024-02-06,00:50:00,0.09
2024-02-06,01:00:00,0.08
2024-02-06,01:10:00,0.06
2024-02-06,01:20:00,0.06
2024-02-06,01:30:00,0.05
2024-02-06,01:40:00,0.04
2024-02-06,01:50:00,0.03
2024-02-06,02:00:00,0.03
2024-02-06,02:10:00,0.02
2024-02-06,02:20:00,0.02
2024-02-06,02:30:00,0.02
2024-02-06,02:40:00,0.02
2024-02-06,02:50:00,0.02
2024-02-06,03:00:00,0.03
2024-02-06,03:10:00,0.04
2024-02-06,03:20:00,0.06
2024-02-06,03:30:00,0.08
2024-02-06,03:40:00,0.11
2024-02-06,03:50:00,0.14
2024-02-06,04:00:00,0.16
2024-02-06,04:10:00,0.18
2024-02-06,04:20:00,0.21
2024-02-06,04:30:00,0.23
2024-02-06,04:40:00,0.25
2024-02-06,04:50:00,0.27
2024-02-06,05:00:00,0.28
2024-02-06,05:10:00,0.3
2024-02-06,05:20:00,0.32
2024-02-06,05:30:00,0.34
2024-02-06,05:40:00,0.36
2024-02-06,05:50:00,0.39
2024-02-06,06:00:00,0.4
2024-02-06,06:10:00,0.42
2024-02-06,06:20:00,0.44
2024-02-06,06:30:00,0.45
2024-02-06,06:40:00,0.47
2024-02-06,06:50:00,0.48
2024-02-06,07:00:00,0.5
2024-02-06,07:10:00,0.51
2024-02-06,07:20:00,0.52
2024-02-06,07:30:00,0.54
2024-02-06,07:40:00,0.56
2024-02-06,07:50:00,0.57
2024-02-06,08:00:00,0.59
2024-02-06,08:10:00,0.6
2024-02-06,08:20:00,0.61
2024-02-06,08:30:00,0.62
2024-02-06,08:40:00,0.62
2024-02-06,08:50:00,0.66
2024-02-06,09:00:00,0.67
2024-02-06,09:10:00,0.69
2024-02-06,09:20:00,0.7
2024-02-06,09:30:00,0.7
2024-02-06,09:40:00,0.72
2024-02-06,09:50:00,0.74
2024-02-06,10:00:00,0.76
2024-02-06,10:10:00,0.76
2024-02-06,10:20:00,0.78
2024-02-06,10:30:00,0.79
2024-02-06,10:40:00,0.79
2024-02-06,10:50:00,0.8
2024-02-06,11:00:00,0.8
2024-02-06,11:10:00,0.83
2024-02-06,11:20:00,0.83
2024-02-06,11:30:00,0.85
2024-02-06,11:40:00,0.86
2024-02-06,11:50:00,0.87
2024-02-06,12:00:00,0.88
2024-02-06,12:10:00,0.88
2024-02-06,12:20:00,0.89
2024-02-06,12:30:00,0.9
2024-02-06,12:40:00,0.91
2024-02-06,12:50:00,0.91
2024-02-06,13:00:00,0.91
2024-02-06,13:10:00,0.92
2024-02-06,13:20:00,0.91
2024-02-06,13:30:00,0.92
2024-02-06,13:40:00,0.93
2024-02-06,13:50:00,0.94
2024-02-06,14:00:00,0.95
2024-02-06,14:10:00,0.95
2024-02-06,14:20:00,0.95
2024-02-06,14:30:00,0.95
2024-02-06,14:40:00,0.95
2024-02-06,14:50:00,0.95
2024-02-06,15:00:00,0.95
2024-02-06,15:10:00,0.94
2024-02-06,15:20:00,0.92
2024-02-06,15:30:00,0.93
2024-02-06,15:40:00,0.93
2024-02-06,15:50:00,0.93
2024-02-06,16:00:00,0.89
2024-02-06,16:10:00,0.89
2024-02-06,16:20:00,0.89
2024-02-06,16:30:00,0.88
2024-02-06,16:40:00,0.87
2024-02-06,16:50:00,0.85
2024-02-06,17:00:00,0.83
2024-02-06,17:10:00,0.82
2024-02-06,17:20:00,0.81
2024-02-06,17:30:00,0.79
2024-02-06,17:40:00,0.78
2024-02-06,17:50:00,0.76
2024-02-06,18:00:00,0.75
2024-02-06,18:10:00,0.74
2024-02-06,18:20:00,0.72
2024-02-06,18:30:00,0.7
2024-02-06,18:40:00,0.7
2024-02-06,18:50:00,0.68
2024-02-06,19:00:00,0.67
2024-02-06,19:10:00,0.65
2024-02-06,19:20:00,0.63
2024-02-06,19:30:00,0.63
2024-02-06,19:40:00,0.61
2024-02-06,19:50:00,0.6
2024-02-06,20:00:00,0.59
2024-02-06,20:10:00,0.57
2024-02-06,20:20:00,0.56
2024-02-06,20:30:00,0.54
2024-02-06,20:40:00,0.52
2024-02-06,20:50:00,0.51
2024-02-06,21:00:00,0.5
2024-02-06,21:10:00,0.48
2024-02-06,21:20:00,0.46
2024-02-06,21:30:00,0.45
2024-02-06,21:40:00,0.43
2024-02-06,21:50:00,0.42
2024-02-06,22:00:00,0.4
2024-02-06,22:10:00,0.39
2024-02-06,22:20:00,0.37
2024-02-06,22:30:00,0.36
2024-02-06,22:40:00,0.34
2024-02-06,22:50:00,0.33
2024-02-06,23:00:00,0.31
2024-02-06,23:10:00,0.29
2024-02-06,23:20:00,0.28
2024-02-06,23:30:00,0.26
2024-02-06,23:40:00,0.24
2024-02-06,23:50:00,0.23
2024-02-07,00:00:00,0.21
2024-02-07,00:10:00,0.2
2024-02-07,00:20:00,0.18
2024-02-07,00:30:00,0.16
2024-02-07,00:40:00,0.16
2024-02-07,00:50:00,0.14
2024-02-07,01:00:00,0.12
2024-02-07,01:10:00,0.11
2024-02-07,01:20:00,0.09
2024-02-07,01:30:00,0.08
2024-02-07,01:40:00,0.06
2024-02-07,01:50:00,0.05
2024-02-07,02:00:00,0.04
2024-02-07,02:10:00,0.02
2024-02-07,02:20:00,0.01
2024-02-07,02:30:00,0
2024-02-07,02:40:00,0
2024-02-07,02:50:00,-0.02
2024-02-07,03:00:00,-0.02
2024-02-07,03:10:00,-0.03
2024-02-07,03:20:00,-0.04
2024-02-07,03:30:00,-0.05
2024-02-07,03:40:00,-0.05
2024-02-07,03:50:00,-0.04
2024-02-07,04:00:00,-0.04
2024-02-07,04:10:00,-0.02
2024-02-07,04:20:00,0
2024-02-07,04:30:00,0.01
2024-02-07,04:40:00,0.04
2024-02-07,04:50:00,0.08
2024-02-07,05:00:00,0.11
2024-02-07,05:10:00,0.14
2024-02-07,05:20:00,0.17
2024-02-07,05:30:00,0.2
2024-02-07,05:40:00,0.23
2024-02-07,05:50:00,0.25
2024-02-07,06:00:00,0.27
2024-02-07,06:10:00,0.29
2024-02-07,06:20:00,0.31
2024-02-07,06:30:00,0.34
2024-02-07,06:40:00,0.36
2024-02-07,06:50:00,0.38
2024-02-07,07:00:00,0.4
2024-02-07,07:10:00,0.42
2024-02-07,07:20:00,0.44
2024-02-07,07:30:00,0.45
2024-02-07,07:40:00,0.47
2024-02-07,07:50:00,0.5
2024-02-07,08:00:00,0.52
2024-02-07,08:10:00,0.53
2024-02-07,08:20:00,0.55
2024-02-07,08:30:00,0.58
2024-02-07,08:40:00,0.6
2024-02-07,08:50:00,0.62
2024-02-07,09:00:00,0.64
2024-02-07,09:10:00,0.66
2024-02-07,09:20:00,0.67
2024-02-07,09:30:00,0.68
2024-02-07,09:40:00,0.7
2024-02-07,09:50:00,0.72
2024-02-07,10:00:00,0.75
2024-02-07,10:10:00,0.76
2024-02-07,10:20:00,0.77
2024-02-07,10:30:00,0.79
2024-02-07,10:40:00,0.79
2024-02-07,10:50:00,0.81
2024-02-07,11:00:00,0.83
2024-02-07,11:10:00,0.84
2024-02-07,11:20:00,0.85
2024-02-07,11:30:00,0.86
2024-02-07,11:40:00,0.88
2024-02-07,11:50:00,0.89
2024-02-07,12:00:00,0.9
2024-02-07,12:10:00,0.91
2024-02-07,12:20:00,0.92
2024-02-07,12:30:00,0.93
2024-02-07,12:40:00,0.93
2024-02-07,12:50:00,0.94
2024-02-07,13:00:00,0.95
2024-02-07,13:10:00,0.95
2024-02-07,13:20:00,0.95
2024-02-07,13:30:00,0.96
2024-02-07,13:40:00,0.96
2024-02-07,13:50:00,0.97
2024-02-07,14:00:00,0.97
2024-02-07,14:10:00,0.97
2024-02-07,14:20:00,0.97
2024-02-07,14:30:00,0.97
2024-02-07,14:40:00,0.96
2024-02-07,14:50:00,0.96
2024-02-07,15:00:00,0.95
2024-02-07,15:10:00,0.95
2024-02-07,15:20:00,0.95
2024-02-07,15:30:00,0.95
2024-02-07,15:40:00,0.94
2024-02-07,15:50:00,0.93
2024-02-07,16:00:00,0.92
2024-02-07,16:10:00,0.91
2024-02-07,16:20:00,0.9